Flag for Germany Weather past 2 weeks in Backnang, Baden-Württemberg, Germany

Now
60 °F

Overcast.


Feels Like: 60 °F
Forecast: 56 / 78 °F
Wind: 3 mph from Northeast

Location: Oehringen

Current Time: Jul 25, 2014 at 5:50:38 AM

Latest Report: Jul 25, 2014 at 5:00 AM


Visibility: 14 mi

Pressure: 29.94 "Hg

Humidity: 82%

Dew point: 55 °F

Location of BacknangLocation

Historic Weather in Backnang — Graph

°F

Backnang temperature yesterday

Maximum temperature yesterday: 81 °F (at 4:00 PM)
Minimum temperature yesterday: 59 °F (at 6:00 AM)
Average temperature yesterday: 71 °F

Past Weeks' High & Low Weather Summary

 TemperatureHumidityPressure
High93 °F (Jul 19, 5:00 PM)98% (Jul 11, 3:00 AM)30.20 "Hg (Jul 11, 3:00 AM)
Low53 °F (Jul 10, 4:00 AM)21% (Jul 19, 5:00 PM)29.77 "Hg (Jul 10, 4:00 AM)
Average69 °F70%29.95 "Hg
* Reported Jul 10 4:00 AM — Jul 25 4:00 AM, Backnang, Weather by CustomWeather, © 2014

Note: Actual official high and low records may vary slightly from our data, if they occured in-between our weather recording intervals... More about our weather records

Advertising

Backnang weather history for previous 24 hours

 ConditionsComfort  
Time TempWeatherWind HumidityBarometerVisibility
4:00 AM
Jul 25
60 °FClear.2 mph82%29.92 "Hg13 mi
3:00 AM62 °FOvercast.2 mph78%29.92 "Hg17 mi
2:00 AM63 °FClear.3 mph75%29.91 "Hg19 mi
1:00 AM65 °FPassing clouds.3 mph74%29.92 "Hg19 mi
12:00 AM65 °FClear.2 mph72%29.91 "Hg18 mi
11:00 PM
Jul 24
67 °FClear.2 mph69%29.90 "Hg19 mi
10:00 PM69 °FClear.3 mph59%29.88 "Hg14 mi
9:00 PM72 °FScattered clouds.3 mph50%29.86 "Hg17 mi
8:00 PM77 °FSunny.3 mph43%29.84 "Hg28 mi
7:00 PM80 °FPassing clouds.2 mph35%29.83 "Hg17 mi
6:00 PM81 °FSunny.2 mph37%29.84 "Hg25 mi
5:00 PM78 °FScattered clouds.3 mph39%29.85 "Hg25 mi
4:00 PM81 °FSunny.3 mph35%29.85 "Hg25 mi
3:00 PM80 °FPassing clouds.5 mph37%29.87 "Hg22 mi
2:00 PM80 °FPassing clouds.3 mph37%29.88 "Hg28 mi
1:00 PM79 °FSunny.5 mph40%29.89 "Hg17 mi
12:00 PM76 °FSunny.3 mph48%29.89 "Hg17 mi
11:00 AM74 °FSunny.2 mph52%29.90 "Hg43 mi
10:00 AM71 °FPassing clouds.5 mph55%29.90 "Hg22 mi
9:00 AM68 °FSunny.3 mph58%29.91 "Hg19 mi
8:00 AM64 °FScattered clouds.1 mph70%29.92 "Hg13 mi
7:00 AM60 °FSunny.2 mph78%29.91 "Hg12 mi
6:00 AM59 °FSunny.1 mph83%29.91 "Hg10 mi
5:00 AM60 °FClear.2 mph80%29.91 "Hg12 mi
Weather by CustomWeather, © 2014

See weather overviewHow to use our weather pages